Flag for Hungary Weather past 2 weeks in Szeged, Hungary

Now
68 °F

Low clouds.


Feels Like: 68 °F
Forecast: 62 / 78 °F
Wind: 2 mph from North

Location: Szeged

Current Time: Jul 23, 2014 at 4:20:53 AM

Latest Report: Jul 23, 2014 at 3:00 AM


Visibility: 5 mi

Pressure: 29.75 "Hg

Humidity: 92%

Dew point: 66 °F

Location of SzegedLocation

Historic Weather in Szeged — Graph

°F

Szeged temperature yesterday

Maximum temperature yesterday: 77 °F (at 4:00 PM)
Minimum temperature yesterday: 67 °F (at 6:00 AM)
Average temperature yesterday: 71 °F

Past Weeks' High & Low Weather Summary

 TemperatureHumidityPressure
High90 °F (Jul 21, 3:00 PM)95% (Jul 11, 5:00 AM)30.03 "Hg (Jul 11, 5:00 AM)
Low54 °F (Jul 10, 5:00 AM)29% (Jul 20, 2:00 PM)29.59 "Hg (Jul 11, 6:00 PM)
Average72 °F71%29.86 "Hg
* Reported Jul 8 3:00 AM — Jul 23 3:00 AM, Szeged, Weather by CustomWeather, © 2014

Note: Actual official high and low records may vary slightly from our data, if they occured in-between our weather recording intervals... More about our weather records

Advertising

Szeged weather history for previous 24 hours

 ConditionsComfort  
Time TempWeatherWind HumidityBarometerVisibility
3:00 AM
Jul 23
68 °FLow clouds.2 mph92%29.75 "Hg5 mi
2:00 AM68 °FFog.3 mph93%29.77 "Hg3 mi
6:00 PM
Jul 22
75 °FOvercast.5 mph66%29.75 "Hg12 mi
5:00 PM75 °FOvercast.6 mph69%29.76 "Hg12 mi
4:00 PM77 °FOvercast.5 mph67%29.78 "Hg28 mi
3:00 PM75 °FOvercast.5 mph72%29.78 "Hg31 mi
2:00 PM76 °FOvercast.5 mph68%29.78 "Hg22 mi
1:00 PM72 °FOvercast.2 mph74%29.80 "Hg19 mi
12:00 PM71 °FOvercast.2 mph81%29.80 "Hg9 mi
11:00 AM68 °FLight rain. Overcast.2 mph89%29.81 "Hg6 mi
10:00 AM68 °FOvercast.3 mph86%29.80 "Hg12 mi
9:00 AM68 °FOvercast.5 mph89%29.80 "Hg9 mi
8:00 AM68 °FLight rain. Overcast.2 mph89%29.78 "Hg7 mi
7:00 AM68 °FOvercast.2 mph90%29.76 "Hg6 mi
6:00 AM67 °FOvercast.1 mph91%29.76 "Hg6 mi
5:00 AM69 °FOvercast.2 mph89%29.77 "Hg6 mi
4:00 AM69 °FLight rain. Overcast.3 mph88%29.79 "Hg9 mi
Weather by CustomWeather, © 2014

See weather overviewHow to use our weather pages